Date String (YYYY-MM-DD hh:mm:ss) UTC,Instrument flags,Ambient pressure (hPa),Sample flow (lpm),Bypass flow (lpm),Sample temperature (°C),Ambient temperature (°C),ASC tube jacket temperature (°C),LED temperature (°C),Box temperature (°C),Sample RH (%),Span deviation,Mass concentration (μg/m³),Mass concentration (μg/m³),Mass concentration (μg/m³)
DateTimeUTC,F1_M11,P_M11,Q1_M11,Q2_M11,T1_M11,T2_M11,T3_M11,T4_M11,T5_M11,U1_M11,ZSPAN_M11,X0_M11,X2_M11,X1_M11
2021-09-12 08:00:00,,0830.5,4.99,0.00,29.5,28.3,00.0,38.6,31.3,21.7,0001.5,0016.67,0007.53,0006.15
2021-09-12 08:01:00,,0830.5,5.01,0.00,29.5,28.4,00.0,38.6,31.3,21.7,0001.4,0017.03,0007.54,0006.11
2021-09-12 08:02:00,,0830.5,4.98,0.00,29.5,28.5,00.0,38.6,31.4,21.7,0001.7,0016.23,0007.46,0006.08
2021-09-12 08:03:00,,0830.6,4.99,0.00,29.6,28.5,00.0,38.6,31.4,21.7,0002.1,0014.86,0007.36,0006.05
2021-09-12 08:04:00,,0830.5,5.01,0.00,29.6,28.6,00.0,38.6,31.4,21.7,0002.2,0014.55,0007.34,0006.03
2021-09-12 08:05:00,,0830.5,4.99,0.00,29.6,28.6,00.0,38.6,31.4,21.7,0002.3,0015.03,0007.32,0006.02
2021-09-12 08:06:00,,0830.6,5.01,0.00,29.6,28.7,00.0,38.6,31.5,21.6,0002.5,0015.44,0007.38,0006.02
2021-09-12 08:07:00,,0830.5,4.98,0.00,29.6,28.7,00.0,38.7,31.5,21.7,0002.8,0015.73,0007.43,0006.03
2021-09-12 08:08:00,,0830.5,5.02,0.00,29.7,28.8,00.0,38.7,31.5,21.7,0002.9,0015.32,0007.45,0006.04
2021-09-12 08:09:00,,0830.5,4.98,0.00,29.7,28.8,00.0,38.7,31.5,21.8,0002.8,0015.41,0007.47,0006.04
2021-09-12 08:10:00,,0830.5,5.01,0.00,29.7,28.8,00.0,38.7,31.5,21.8,0002.9,0015.52,0007.43,0006.04
2021-09-12 08:11:00,,0830.5,5.00,0.00,29.7,28.9,00.0,38.7,31.5,21.9,0002.7,0015.31,0007.39,0006.05
2021-09-12 08:12:00,,0830.5,4.99,0.00,29.7,28.9,00.0,38.7,31.5,21.9,0002.7,0015.44,0007.36,0006.05
2021-09-12 08:13:00,,0830.5,5.01,0.00,29.8,28.8,00.0,38.8,31.5,21.9,0002.6,0015.61,0007.39,0006.06
2021-09-12 08:14:00,,0830.4,5.01,0.00,29.7,27.3,00.0,38.7,31.1,22.1,0002.3,0015.63,0007.41,0006.06
2021-09-12 08:15:00,,0830.4,4.99,0.00,29.6,26.2,00.0,38.7,30.9,22.3,0002.1,0015.45,0007.43,0006.06
2021-09-12 08:16:00,,0830.4,5.01,0.00,29.5,26.4,00.0,38.7,30.9,22.4,0001.9,0014.71,0007.41,0006.06
2021-09-12 08:17:00,,0830.4,4.99,0.00,29.4,26.7,00.0,38.6,30.9,22.5,0001.8,0014.39,0007.40,0006.05
2021-09-12 08:18:00,,0830.4,5.01,0.00,29.4,27.1,00.0,38.6,31.0,22.5,0001.7,0014.40,0007.40,0006.03
2021-09-12 08:19:00,,0830.3,5.00,0.00,29.4,27.4,00.0,38.6,31.0,22.4,0001.7,0014.83,0007.35,0006.01
2021-09-12 08:20:00,,0830.3,4.99,0.00,29.4,27.7,00.0,38.6,31.1,22.3,0001.6,0014.47,0007.33,0006.01
2021-09-12 08:21:00,,0830.3,4.99,0.00,29.4,27.9,00.0,38.6,31.1,22.3,0001.4,0014.62,0007.31,0006.00
2021-09-12 08:22:00,,0830.3,5.00,0.00,29.4,28.0,00.0,38.6,31.1,22.2,0001.9,0014.64,0007.31,0006.00
2021-09-12 08:23:00,,0830.3,5.00,0.00,29.4,28.1,00.0,38.6,31.2,21.9,0002.2,0014.22,0007.28,0005.99
2021-09-12 08:24:00,,0830.2,5.01,0.00,29.4,28.2,00.0,38.6,31.2,21.8,0001.9,0015.42,0007.27,0006.00
2021-09-12 08:25:00,,0830.2,4.99,0.00,29.5,28.3,00.0,38.6,31.2,21.7,0002.1,0016.09,0007.32,0006.01
2021-09-12 08:26:00,,0830.2,5.00,0.00,29.5,28.4,00.0,38.6,31.3,21.6,0002.3,0016.32,0007.31,0006.02
2021-09-12 08:27:00,,0830.3,5.00,0.00,29.5,28.4,00.0,38.6,31.3,21.5,0002.5,0016.59,0007.34,0006.03
2021-09-12 08:28:00,,0830.2,5.00,0.00,29.5,28.5,00.0,38.6,31.3,21.5,0002.3,0017.54,0007.36,0006.05
2021-09-12 08:29:00,,0830.3,5.00,0.00,29.5,28.6,00.0,38.6,31.3,21.1,0001.7,0017.45,0007.37,0006.08
2021-09-12 08:30:00,,0830.3,5.01,0.00,29.5,28.6,00.0,38.6,31.3,21.0,0001.7,0017.21,0007.44,0006.12
2021-09-12 08:31:00,,0830.3,5.00,0.00,29.6,28.6,00.0,38.6,31.4,21.0,0002.2,0017.11,0007.46,0006.14
2021-09-12 08:32:00,,0830.3,4.99,0.00,29.6,28.7,00.0,38.6,31.4,21.0,0002.2,0017.22,0007.44,0006.17
2021-09-12 08:33:00,,0830.3,5.00,0.00,29.6,28.7,00.0,38.6,31.4,20.8,0002.2,0017.09,0007.47,0006.20
2021-09-12 08:34:00,,0830.3,4.99,0.00,29.6,28.7,00.0,38.7,31.4,20.7,0002.0,0017.01,0007.53,0006.25
2021-09-12 08:35:00,,0830.4,5.00,0.00,29.6,28.7,00.0,38.7,31.4,20.7,0002.0,0016.55,0007.60,0006.30
2021-09-12 08:36:00,,0830.4,5.00,0.00,29.6,28.8,00.0,38.7,31.4,20.6,0002.1,0015.89,0007.61,0006.34
2021-09-12 08:37:00,,0830.4,5.01,0.00,29.6,28.8,00.0,38.7,31.4,20.5,0002.3,0015.71,0007.68,0006.37
2021-09-12 08:38:00,,0830.4,5.00,0.00,29.7,28.8,00.0,38.7,31.4,20.5,0002.1,0015.87,0007.71,0006.40
2021-09-12 08:39:00,,0830.4,4.99,0.00,29.7,28.8,00.0,38.7,31.4,20.4,0002.5,0014.89,0007.69,0006.43
2021-09-12 08:40:00,,0830.3,5.01,0.00,29.7,28.8,00.0,38.7,31.4,20.4,0002.9,0015.52,0007.71,0006.45
2021-09-12 08:41:00,,0830.3,5.00,0.00,29.7,28.9,00.0,38.7,31.4,20.4,0003.2,0015.94,0007.67,0006.45
2021-09-12 08:42:00,,0830.3,5.00,0.00,29.7,28.9,00.0,38.8,31.4,20.3,0002.8,0016.45,0007.69,0006.48
2021-09-12 08:43:00,,0830.3,5.00,0.00,29.7,28.9,00.0,38.8,31.5,20.3,0002.9,0016.08,0007.73,0006.49
2021-09-12 08:44:00,,0830.2,5.01,0.00,29.7,28.1,00.0,38.8,31.3,20.4,0002.3,0016.06,0007.74,0006.51
2021-09-12 08:45:00,,0830.2,5.01,0.00,29.6,26.3,00.0,38.7,30.9,20.5,0001.8,0016.14,0007.75,0006.50
2021-09-12 08:46:00,,0830.2,5.00,0.00,29.5,26.1,00.0,38.7,30.8,20.6,0002.0,0015.39,0007.71,0006.48
2021-09-12 08:47:00,,0830.2,5.00,0.00,29.4,26.4,00.0,38.7,30.8,20.7,0001.6,0015.37,0007.67,0006.46
2021-09-12 08:48:00,,0830.2,5.00,0.00,29.4,26.8,00.0,38.6,30.9,20.8,0001.2,0015.18,0007.56,0006.43
2021-09-12 08:49:00,,0830.3,5.00,0.00,29.3,27.2,00.0,38.6,31.0,20.8,0001.2,0014.71,0007.50,0006.42
2021-09-12 08:50:00,,0830.3,5.00,0.00,29.3,27.5,00.0,38.6,31.0,20.7,0001.0,0014.70,0007.49,0006.40
2021-09-12 08:51:00,,0830.2,5.01,0.00,29.3,27.7,00.0,38.5,31.0,20.6,0000.7,0014.15,0007.50,0006.40
2021-09-12 08:52:00,,0830.2,5.00,0.00,29.3,27.9,00.0,38.5,31.1,20.5,0000.6,0013.23,0007.50,0006.40
2021-09-12 08:53:00,,0830.3,4.99,0.00,29.4,28.0,00.0,38.5,31.1,20.5,0000.4,0013.33,0007.48,0006.39
2021-09-12 08:54:00,,0830.1,5.00,0.00,29.4,28.1,00.0,38.5,31.1,20.4,0000.2,0012.94,0007.47,0006.37
2021-09-12 08:55:00,,0830.1,5.00,0.00,29.4,28.2,00.0,38.5,31.1,20.4,0000.3,0012.92,0007.49,0006.37
2021-09-12 08:56:00,,0830.1,5.00,0.00,29.4,28.3,00.0,38.5,31.2,20.4,0000.6,0012.89,0007.49,0006.36
2021-09-12 08:57:00,,0830.1,4.99,0.00,29.4,28.3,00.0,38.5,31.2,20.4,0000.8,0012.90,0007.48,0006.35
2021-09-12 08:58:00,,0830.1,5.01,0.00,29.4,28.4,00.0,38.5,31.2,20.4,0001.2,0012.62,0007.46,0006.34
2021-09-12 08:59:00,,0830.1,5.00,0.00,29.4,28.4,00.0,38.5,31.2,20.4,0001.3,0012.36,0007.45,0006.34
